Regional Weather Roundup
Issued by NWS

Home | Current Version | Previous Version | Graphics & Text | Print | Product List | Glossary On
Versions: 1 2 3 4 5 6 7 8 9 10 11 12 13 14 15 16 17 18 19 20 21 22 23 24 25 26 27 28 29 30 31 32 33 34 35 36 37 38 39 40 41 42 43 44 45 46 47 48 49 50
000
ASUS43 KIND 290509
RWRIN

WEATHER ROUNDUP FOR INDIANA
NATIONAL WEATHER SERVICE INDIANAPOLIS IN
100 AM EDT MON AUG 29 2016

NOTE: "FAIR" INDICATES FEW OR NO CLOUDS BELOW 12,000 FEET WITH NO
SIGNIFICANT WEATHER AND/OR OBSTRUCTIONS TO VISIBILITY.

* - STATION DOES NOT REPORT WEATHER SUCH AS PRECIPITATION OR FOG.

+ - STATION NOT QUALITY CONTROLLED BY THE NATIONAL WEATHER SERVICE.
    USE DATA WITH CAUTION...ESPECIALLY DEWPOINT AND RELATIVE
    HUMIDITY OBSERVATIONS.

INZ001>003-010>013-019-020-290600-
NORTHWEST INDIANA

CITY           SKY/WX    TMP DP  RH WIND       PRES   REMARKS
GARY /AIRPORT/ PTCLDY    71  70  97 CALM      30.23S
KNOX *+        CLOUDY    68  59  73 CALM      30.23S VSB 1/2
LA PORTE +     CLEAR    N/A N/A N/A CALM      30.24S
MICHIGAN CITY+ CLEAR     68  68 100 CALM      30.23S FOG
MONTICELLO +   PTCLDY    70  65  84 CALM      30.21S
RENSSELAER +   PTCLDY    70  70 100 CALM      30.22S
VALPARAISO     CLOUDY    69  68  96 CALM      30.23F

$$

LMZ046-743>745-290600-
SOUTHERN LAKE MICHIGAN

STATION/POSITION TIME  TEMP    WIND        PRES    WAVE
                       AIR SEA DIR/SP/G            HT
                 (UTC) (F)     (DEG/KT/KT) (MB)    (FT)
BURNS HARBOR     0403   74     100/  6/ 11 1023.7S
MICHIGAN CITY    0400   72      90/  4/  7   N/A
5NW MICH CITY    0500   74 76   70/  6/  8   N/A     2

$$

INZ004-005-014>016-021>024-290600-
NORTH CENTRAL INDIANA

CITY           SKY/WX    TMP DP  RH WIND       PRES   REMARKS
GOSHEN         CLOUDY    68  66  93 CALM      30.23S FOG
LOGANSPORT +   CLOUDY    66  66 100 E3        30.22F
PERU/GRISSOM   MOCLDY    70  69  96 CALM      30.21S
ROCHESTER +    CLOUDY    70  70 100 CALM      30.23S
SOUTH BEND     CLEAR     69  68  96 N3        30.24S
WARSAW +       PTCLDY    68  68 100 CALM      30.24R FOG

$$

INZ006>009-017-018-025>027-290600-
NORTHEAST INDIANA

CITY           SKY/WX    TMP DP  RH WIND       PRES   REMARKS
ANGOLA *+      MOCLDY    66  61  82 CALM      30.24R VSB 1/2
AUBURN +       CLEAR     68  64  88 CALM      30.24S
FORT WAYNE     PTCLDY    67  64  90 N3        30.23S
HUNTINGTON +   CLEAR     67  66  95 CALM      30.22S

$$

INZ028-029-035-036-043>045-051>053-290600-
WEST CENTRAL INDIANA

CITY           SKY/WX    TMP DP  RH WIND       PRES   REMARKS
CRAWFORDSVL +  CLEAR     69  69 100 NE3       30.21S
GREENCASTLE +  CLEAR     72  72 100 CALM      30.22R
LAFAYETTE      CLOUDY    70  68  93 E5        30.20F
TERRE HAUTE    LGT RAIN  75  68  78 SW6G22    30.22R

$$

INZ030>032-037>040-046>048-054>057-064-065-290600-
CENTRAL INDIANA

CITY           SKY/WX    TMP DP  RH WIND       PRES   REMARKS
INDIANAPOLIS   CLEAR     74  68  81 S7        30.20S
-EAGLE CREEK   CLEAR     73  68  84 CALM      30.20S
KOKOMO *+      PTCLDY    70  68  94 CALM      30.22S
MARION +       CLEAR     70  68  93 CALM      30.22F
MT COMFORT *+  CLEAR     68  68 100 N6        30.22S
SHELBYVILLE    CLEAR     72  67  84 N3        30.19F
ZIONSVILLE +   CLEAR     67  67  97 NE3       30.23S

$$

INZ033-034-041-042-049-050-058-059-290600-
EAST CENTRAL INDIANA

CITY           SKY/WX    TMP DP  RH WIND       PRES   REMARKS
MUNCIE         CLEAR     70  68  93 CALM      30.22F

$$

INZ060-061-067>069-081>083-085>088-290600-
SOUTHWEST INDIANA

CITY           SKY/WX    TMP DP  RH WIND       PRES   REMARKS
EVANSVILLE     PTCLDY    76  71  85 NE3       30.16F
HUNTINGBURG *+ CLOUDY    73  68  83 N6        30.18S
WASHINGTON +   LGT RAIN  73  73 100 MISG      30.19S

$$

INZ062-063-066-070>080-084-089>092-290600-
SOUTH CENTRAL AND SOUTHEAST INDIANA

CITY           SKY/WX    TMP DP  RH WIND       PRES   REMARKS
BLOOMINGTON    CLOUDY    73  67  81 SE3       30.21R
MADISON *+     CLOUDY    70  68  94 CALM      30.21S

$$





USA.gov is the U.S. government's official web portal to all federal, state and local government web resources and services.